Regional Weather Roundup
Issued by NWS

Home | Current Version | Previous Version | Graphics & Text | Print | Product List | Glossary On
Versions: 1 2 3 4 5 6 7 8 9 10 11 12 13 14 15 16 17 18 19 20 21 22 23 24 25 26 27 28 29 30 31 32 33 34 35 36 37 38 39 40 41 42 43 44 45 46 47 48 49 50
000
ASUS43 KOAX 221410
RWRNE

WEATHER ROUNDUP FOR NEBRASKA
NATIONAL WEATHER SERVICE OMAHA NE
900 AM CDT WED MAR 22 2017

NOTES: SATELLITE DATA IS BEING USED TO AUGMENT CLOUD COVER ABOVE
       12000 FEET.
       "FAIR" INDICATES FEW OR NO CLOUDS BELOW 12,000 FEET WITH NO
       SIGNIFICANT WEATHER AND/OR OBSTRUCTIONS TO VISIBILITY.

  * THESE STATIONS DO NOT REPORT WEATHER SUCH AS RAIN...SNOW OR FOG.

NEZ001>004-019>022-054>056-221500-
NEBRASKA PANHANDLE

CITY           SKY/WX    TMP DP  RH WIND       PRES   REMARKS
SCOTTSBLUFF    CLOUDY    38  28  67 SE16      30.05S WCI  29
ALLIANCE       CLOUDY    34  30  85 S24G31    30.05F WCI  21
CHADRON        CLOUDY    40  31  70 S16G25    29.98F WCI  31
KIMBALL        CLOUDY    35  28  78 S15G21    30.06S WCI  25
SIDNEY         CLOUDY    35  31  85 S25       30.10S WCI  23
$$

NEZ057>060-069>072-079>082-221500-
SOUTHWEST NEBRASKA

CITY           SKY/WX    TMP DP  RH WIND       PRES   REMARKS
NORTH PLATTE   CLOUDY    36  23  59 SE13      30.23F WCI  27
IMPERIAL       CLOUDY    35  24  64 SE14G23   30.19F WCI  26
LEXINGTON      CLOUDY    35  24  63 SE14      30.28F WCI  26
MCCOOK         CLOUDY    37  25  61 SE14      30.27R WCI  28
OGALLALA       CLOUDY    37  26  66 SE10G20   30.18F WCI  29
$$

NEZ005>010-023>029-035>040-094-221500-
NORTH CENTRAL NEBRASKA

CITY           SKY/WX    TMP DP  RH WIND       PRES   REMARKS
VALENTINE      CLOUDY    32  25  75 S20G28    30.17F WCI  20
AINSWORTH      CLOUDY    31  28  90 S24G31    30.20F WCI  18
BROKEN BOW     CLOUDY    33  27  78 SE16G24   30.26F WCI  23
O`NEILL        CLOUDY    31  27  84 SE18      30.30S WCI  19
ORD            CLOUDY    32  24  72 SE10      30.31R WCI  24
THEDFORD       CLOUDY    34  26  75 S16G29    30.21F WCI  23
$$

NEZ041-046>049-061>064-073>077-083>087-221500-
SOUTH CENTRAL NEBRASKA

CITY           SKY/WX    TMP DP  RH WIND       PRES   REMARKS
GRAND ISLAND   CLOUDY    34  25  69 SE16      30.34F WCI  24
AURORA         MOSUNNY   34  23  65 SE14      30.35F WCI  24
HASTINGS       CLOUDY    34  23  64 SE16G24   30.34F WCI  24
HEBRON         SUNNY     35  25  66 E10       30.37F WCI  27
HOLDREGE       CLOUDY    34  23  64 E17       30.30F WCI  23
KEARNEY *      CLOUDY    36  21  55 SE18      30.31F WCI  25
YORK           CLOUDY    34  23  64 SE10      30.38S WCI  26
$$

NEZ011>018-030>034-042>045-221500-
NORTHEAST NEBRASKA

CITY           SKY/WX    TMP DP  RH WIND       PRES   REMARKS
NORFOLK        CLOUDY    29  23  78 SE13      30.38R WCI  19
ALBION           N/A    N/A N/A N/A MISG        N/A
BLAIR          CLOUDY    32  22  66 E7        30.41R WCI  26
FREMONT        CLOUDY    32  22  66 E8        30.41S WCI  25
TEKAMAH        CLOUDY    32  20  61 SE12      30.43S WCI  23
WAYNE          CLOUDY    30  23  75 SE10      30.39S WCI  21
$$

NEZ050>053-065>068-078-088>093-221500-
SOUTHEAST NEBRASKA

CITY           SKY/WX    TMP DP  RH WIND       PRES   REMARKS
LINCOLN        MOSUNNY   35  20  54 E9        30.42R WCI  28
OMAHA EPPLEY   CLOUDY    33  19  56 SE12      30.43S WCI  24
BEATRICE       SUNNY     37  24  60 E8        30.39R WCI  30
FALLS CITY     CLOUDY    37  20  50 E12       30.38F WCI  29
NEBRASKA CITY  CLOUDY    35  14  42 E13       30.39F WCI  26
PLATTSMOUTH    CLOUDY    32  20  60 E12       30.40F WCI  23
$$

NEZ044-045-051>053-067-221500-
OMAHA AREA

CITY           SKY/WX    TMP DP  RH WIND       PRES   REMARKS
OMAHA EPPLEY   CLOUDY    33  19  56 SE12      30.43S WCI  24
BLAIR          CLOUDY    32  22  66 E7        30.41R WCI  26
FREMONT        CLOUDY    32  22  66 E8        30.41S WCI  25
MILLARD        CLOUDY    34  24  65 E8        30.42S WCI  27
OFFUTT AFB     LGT RAIN  33  22  65 E9        30.41F WCI  25
PLATTSMOUTH    CLOUDY    32  20  60 E12       30.40F WCI  23
WAHOO          CLOUDY    32  21  63 SE10      30.41S WCI  24
$$



USA.gov is the U.S. government's official web portal to all federal, state and local government web resources and services.